#timestamp,LO_Frequency,Hit,StdDev 
1539950415.8,286046990.3,N
1539950435.7,286046990.9,N
1539950455.5,286046991.1,N
1539950475.3,286046986.9,N
1539950495.2,286046989.5,N
1539950515.0,286046987.1,N
1539950515.9,286046987.1,N
1539950535.7,286046985.3,N
1539950555.6,286046986.5,N
1539950575.4,286046983.9,N
1539950595.3,286046984.5,N
1539950615.1,286046982.5,N
1539950616.0,286046982.5,N
1539950635.8,286046983.4,N
1539950655.7,286046981.1,N
1539950675.5,286046980.8,N
1539950695.3,286046980.8,N
1539950715.2,286046980.6,Y
1539950735.0,286046991.7,P
1539950735.9,286046991.7,P
1539950755.8,286046994.7,P
1539950775.6,286046994.1,N
1539950795.4,286046994.3,N
1539950815.3,286046993.0,Y
1539950835.1,286046999.9,P
1539950855.8,286046999.8,N
1539950875.7,286047000.3,N
1539950895.5,286047000.8,N
1539950915.4,286047000.8,N
1539950935.2,286046998.6,N
1539950955.0,286046997.7,N
1539950955.9,286046997.7,N
1539950975.8,286046993.3,N
1539950995.6,286046995.2,N
1539951015.4,286046994.6,N
1539951035.3,286046992.7,N
1539951055.1,286046991.0,N
1539951075.9,286046991.5,N
1539951095.7,286046989.5,Y
1539951115.5,286046991.1,P
1539951135.4,286046988.7,P
1539951155.2,286046991.0,N
1539951175.0,286046992.8,N
1539951176.0,286046992.8,N
1539951195.8,286046992.6,Y
1539951215.6,286046999.0,P
1539951235.5,286046999.1,N
1539951255.3,286046999.3,N
1539951275.1,286046998.8,N
1539951295.9,286046999.4,N
1539951315.7,286046998.7,N
1539951335.6,286046999.3,N
1539951355.4,286046996.9,N
1539951375.2,286046999.6,N
1539951395.1,286046997.9,N
1539951396.0,286046997.9,N
1539951415.8,286046998.0,N
1539951435.6,286046996.4,N
1539951455.5,286046994.8,N
1539951475.3,286046990.1,Y
1539951495.2,286046993.0,P
1539951515.9,286046993.1,N
1539951535.7,286046991.3,P
1539951555.6,286046990.7,Y
1539951575.4,286046995.1,P
1539951595.2,286046995.2,P
1539951615.1,286046997.0,P
1539951616.0,286046997.0,N
1539951635.8,286046997.8,N
1539951655.7,286046998.0,N
1539951675.5,286046993.8,Y
1539951695.3,286046997.4,P
1539951715.2,286046997.8,P
1539951735.0,286046995.4,P
1539951735.9,286046995.4,Y
1539951755.7,286046996.5,P
1539951775.6,286046997.4,P
1539951795.4,286046996.8,P
1539951815.3,286046995.4,Y
1539951835.1,286047000.0,P
1539951855.8,286047011.9,P
1539951875.7,286047001.1,N
1539951895.5,286046998.4,N
1539951915.3,286046997.6,N
1539951935.2,286046996.8,N
1539951955.0,286046997.4,N
1539951955.9,286046997.4,N
1539951975.8,286046997.8,N
1539951995.6,286046997.6,N
1539952015.4,286046994.9,N
1539952035.3,286046994.0,N
1539952055.1,286046994.7,N
1539952075.8,286046993.0,N
1539952095.7,286046990.3,N
1539952115.5,286046989.0,N
1539952135.4,286046988.7,N
1539952155.2,286046987.3,N
1539952175.0,286046987.5,N
1539952175.9,286046987.5,N
1539952195.8,286046987.4,N
1539952215.6,286046987.8,N
1539952235.4,286046990.0,N
1539952255.3,286046988.2,N
1539952275.1,286046985.4,N
1539952295.9,286046985.7,N
1539952315.7,286046986.1,N
1539952335.5,286046986.8,N
1539952355.4,286046985.7,N
1539952375.2,286046986.2,N
1539952395.0,286046984.1,N
1539952395.9,286046984.1,N
1539952415.8,286046984.6,Y
1539952435.6,286046990.5,P
1539952455.5,286046990.3,P
1539952475.3,286046990.7,P
1539952495.1,286046991.3,Y
1539952515.9,286046998.1,P
1539952535.7,286046998.8,N
1539952555.5,286046999.5,N
1539952575.4,286046996.8,N
1539952595.2,286046998.0,N
1539952615.1,286046995.5,N
1539952616.0,286046995.5,N
1539952635.8,286046995.8,N
1539952655.6,286046995.8,N
1539952675.5,286046993.6,N
1539952695.3,286046995.7,N
1539952715.1,286046997.9,N
1539952735.9,286046996.5,N
1539952755.7,286046999.5,N
1539952775.6,286046995.1,N
1539952795.4,286046996.4,N
1539952815.2,286046993.3,Y
1539952835.1,286046999.5,P
1539952836.0,286046999.5,N
1539952855.8,286046995.5,P
1539952875.7,286046996.4,N
1539952895.5,286046993.7,Y
1539952915.3,286046996.8,P
1539952935.2,286046996.5,P
1539952985.0,286046993.6,E
1539952995.9,286046997.7,N
1539953015.7,286046998.2,P
1539953035.5,286046999.6,N
1539953055.4,286046998.4,N
1539953075.2,286047000.7,N
1539953095.0,286046998.3,N
1539953095.9,286046998.3,N
1539953115.8,286046997.8,N
1539953135.6,286046999.0,N
1539953155.5,286046995.1,Y
1539953175.3,286046997.6,P
1539953195.1,286046995.4,P
1539953215.9,286046995.4,P
1539953235.7,286046997.6,N
1539953255.5,286046997.4,N
1539953275.4,286046997.5,N
1539953295.2,286046996.4,Y
1539953315.1,286046995.0,P
1539953316.0,286046995.0,P
1539953335.8,286046993.8,P
1539953355.6,286046994.0,Y
1539953375.5,286046996.7,P
1539953395.3,286046996.8,P
1539953415.1,286046997.1,P
1539953435.9,286046997.1,Y
1539953455.7,286047002.7,P
1539953475.6,286047000.1,N
1539953495.4,286047000.2,N
1539953515.2,286047001.1,N
1539953535.1,286047001.1,N
1539953536.0,286047001.1,N
1539953555.8,286046998.4,N
1539953575.7,286047001.2,N
1539953595.5,286046999.4,N
1539953615.3,286046996.7,N
1539953635.2,286046996.8,N
1539953655.0,286046995.1,N
1539953655.9,286046995.1,N
1539953675.8,286046995.2,N
1539953695.6,286046996.0,N
1539953715.4,286046994.1,N
1539953735.3,286046994.0,N
1539953755.1,286046994.5,N
1539953775.8,286046995.9,N
1539953795.7,286046993.5,N
1539953815.5,286046992.5,N
1539953835.4,286046993.0,N
1539953855.2,286046992.7,N
1539953875.0,286046990.8,N
1539953875.9,286046990.8,N
1539953895.8,286046992.7,N
1539953915.6,286046994.7,N
1539953935.4,286046994.8,N
1539953955.3,286046990.8,N
1539953975.1,286046988.7,Y
1539953995.9,286046992.5,P
